Wind_Speed
28 29 29 29 28 28 27 26 24 24 23 22 21 20 19 18 16 16 15 16 17 21 23 22 18 15 13 12 11 13 14 16 17 17 18 17 18 17 15 14 14 14 14
29 30 30 30 30 29 28 27 26 24 24 23 23 23 22 21 20 19 16 16 19 21 23 24 19 16 15 15 13 13 15 16 17 17 19 18 18 17 16 15 15 14 12
31 31 32 32 31 31 30 28 27 25 25 25 25 26 25 24 25 21 18 16 17 20 27 30 14 16 15 15 16 15 17 19 19 19 20 19 19 18 17 16 15 14 13
33 34 34 34 33 31 31 31 29 28 27 27 27 28 28 26 28 24 22 23 17 12 22 28 18 17 16 17 16 18 20 21 20 20 20 20 20 19 17 16 15 14 12
36 35 34 35 35 33 32 32 32 30 29 29 29 26 25 24 27 28 29 28 29 23 16 26 27 23 19 18 18 20 21 23 22 21 21 21 20 19 17 15 15 14 14
40 37 36 35 36 35 34 33 33 30 31 30 24 21 23 25 25 30 31 31 30 28 25 29 27 26 23 19 20 22 24 24 24 23 21 22 21 20 19 17 16 14 14
38 39 38 37 38 37 36 35 32 31 33 29 26 27 26 28 31 31 32 33 31 31 24 25 32 30 26 23 22 24 24 23 24 24 23 22 22 21 20 19 18 16 16
37 39 42 41 40 38 38 35 33 34 34 32 30 29 21 27 35 36 35 37 34 30 29 29 31 35 28 26 24 25 25 25 24 25 25 25 23 22 21 20 19 18 17
41 39 42 41 39 40 39 38 35 34 35 36 34 29 14 18 17 25 35 35 32 32 32 30 31 34 32 29 27 27 29 28 26 25 25 26 25 24 23 22 21 20 18
45 42 41 39 41 39 39 38 36 35 33 36 34 36 33 16 11 10 18 23 30 30 30 36 37 40 35 31 28 28 30 30 29 26 25 27 25 25 25 24 23 22 20
47 44 40 41 42 39 37 37 37 37 34 34 37 35 32 34 36 25 16 23 28 29 30 37 36 38 37 33 31 29 26 33 31 30 28 26 28 27 25 25 24 24 22
50 46 45 41 40 37 35 35 36 34 35 35 36 34 35 32 36 36 30 25 25 28 30 31 38 37 37 35 32 30 28 30 34 34 33 30 28 27 25 24 26 25 24
49 46 44 43 42 37 34 32 32 35 36 35 35 35 35 36 35 34 33 25 29 30 32 31 34 37 38 38 35 31 31 30 32 32 34 34 31 29 26 25 25 26 25
42 46 43 43 38 35 35 35 30 31 35 33 33 36 36 36 36 37 37 30 25 31 34 34 32 35 37 40 36 33 32 32 33 32 32 32 32 31 29 29 28 26 25
36 38 42 39 37 36 37 33 27 29 32 32 33 33 36 37 37 37 37 36 33 22 33 37 39 35 41 46 41 35 34 34 35 35 34 33 32 31 32 31 29 27 25
29 32 37 36 35 36 33 30 25 28 29 30 32 33 35 36 37 36 38 40 36 35 28 33 39 38 38 47 45 34 34 36 36 36 35 35 35 33 32 30 30 30 29
22 25 27 28 30 29 27 28 27 27 28 29 31 32 32 32 35 35 36 39 39 41 38 31 36 36 39 45 44 40 38 35 34 35 34 32 33 32 30 28 28 28 27
20 24 23 22 18 18 20 23 25 26 25 26 27 30 32 34 36 39 42 42 39 41 41 37 38 35 36 44 37 42 39 35 34 33 33 32 31 32 31 30 30 30 30
19 21 21 19 17 16 17 17 19 22 21 24 26 28 33 34 38 41 43 41 45 42 43 40 42 39 35 36 40 35 40 41 40 35 34 34 34 33 33 33 33 32 31
15 16 15 14 15 15 16 18 21 23 26 28 30 35 37 39 39 36 43 40 45 44 49 46 45 46 38 38 40 40 41 45 43 41 38 37 37 36 35 34 33 34 33
19 16 14 12 11 13 17 19 21 22 21 20 19 23 28 29 35 42 45 42 47 43 47 47 44 41 43 42 42 43 42 40 40 42 42 40 38 38 36 35 36 36 34
16 14 10 8 10 16 16 15 13 14 14 15 18 18 19 22 26 28 31 38 48 48 51 48 48 48 48 52 45 46 45 40 37 40 39 38 36 36 36 37 38 36 33
12 10 13 12 13 14 15 14 14 15 16 19 21 23 22 22 25 22 29 28 40 50 47 51 49 50 51 54 54 50 48 46 42 41 39 37 35 31 31 33 33 33 32
14 14 10 7 7 10 14 14 16 16 16 17 17 20 21 22 21 17 20 26 34 36 56 53 50 48 49 52 56 56 51 51 43 37 42 36 36 32 29 29 32 34 36
23 20 17 12 5 3 5 7 8 8 10 11 10 12 16 17 16 13 12 16 23 28 36 44 48 47 46 45 49 45 44 46 41 35 37 37 34 31 27 26 26 25 23
30 27 26 26 23 21 17 9 1 2 3 4 5 6 8 11 11 9 7 10 15 16 20 30 41 44 42 40 35 43 49 51 51 36 36 38 36 38 22 22 22 20 18
Wind_Direction
217 217 217 214 214 215 216 216 216 218 219 221 222 222 221 217 215 211 217 233 237 228 223 218 221 227 234 238 244 238 210 200 191 189 176 178 171 168 166 163 159 157 157
223 222 220 220 218 218 221 221 222 223 224 227 228 226 224 227 223 224 235 239 233 234 225 222 232 221 233 231 234 233 208 189 192 187 183 179 178 174 173 171 169 165 162
225 226 224 221 223 221 222 224 224 225 228 231 233 231 228 230 228 231 241 228 235 239 233 224 224 237 232 231 224 219 199 192 196 193 189 185 184 182 181 177 174 175 173
230 228 227 224 222 224 224 225 227 226 230 232 236 233 233 237 231 237 237 223 231 278 251 244 219 230 231 227 220 210 201 196 198 195 192 193 190 189 186 184 182 180 179
233 231 228 227 225 222 225 226 228 229 232 234 237 239 239 241 242 244 241 241 244 259 260 266 220 232 235 231 228 210 206 195 203 200 200 197 198 193 191 190 190 189 192
237 230 229 228 227 226 223 226 228 233 235 239 241 243 242 240 246 252 245 248 249 259 251 237 226 229 237 238 225 211 211 203 202 205 206 202 201 196 194 196 197 199 203
238 234 231 230 228 227 225 225 226 230 235 237 237 242 245 248 248 244 248 251 256 259 250 241 230 225 232 231 225 218 215 210 207 208 209 210 205 202 201 201 203 203 209
239 237 231 229 229 227 227 226 223 226 231 236 232 236 244 249 249 244 248 255 260 256 256 242 230 231 229 225 221 216 213 216 214 212 214 211 211 207 207 208 210 211 214
237 236 233 232 230 229 229 229 224 224 226 234 234 230 230 241 253 255 252 258 255 259 250 249 236 226 225 224 221 218 213 215 217 217 217 217 213 213 212 213 216 216 217
235 234 236 233 232 230 230 232 230 227 226 232 233 234 233 234 232 255 255 260 254 250 255 245 242 230 220 224 226 225 219 212 214 218 220 220 219 219 217 215 218 220 219
232 233 232 231 230 230 231 232 232 229 227 232 239 237 235 244 246 251 253 264 262 249 253 260 252 235 217 221 225 227 230 216 215 213 220 227 221 223 223 219 218 221 220
229 229 229 229 230 231 231 232 235 231 235 235 242 242 240 242 244 246 248 253 252 258 267 254 253 231 221 223 227 231 230 223 216 218 216 221 226 228 228 225 221 222 222
225 227 229 224 228 230 232 232 233 238 237 238 242 245 249 250 256 260 257 248 254 254 250 246 244 232 227 226 229 231 229 224 222 225 218 219 225 227 232 232 231 226 226
228 225 222 226 228 234 234 234 234 242 240 242 245 249 250 254 257 259 260 255 249 239 248 246 248 232 230 227 230 232 232 226 223 223 224 223 226 229 226 230 234 232 231
238 231 226 223 227 232 235 233 236 242 240 246 249 251 252 256 260 262 262 256 250 242 230 251 242 236 230 232 226 229 230 229 225 223 225 227 228 230 231 231 232 232 233
232 225 227 221 223 232 237 230 237 245 248 249 250 253 255 257 261 261 259 259 259 249 242 247 250 249 239 225 226 227 232 231 227 225 227 230 231 230 231 231 232 234 235
221 219 216 215 226 226 229 228 235 246 245 247 252 255 259 260 257 259 257 262 252 253 249 241 257 256 240 227 226 222 232 228 227 223 224 227 226 226 227 228 229 231 233
212 205 203 206 209 210 220 228 238 244 244 247 253 257 258 260 259 263 261 255 258 246 249 245 246 243 240 226 228 224 226 223 223 221 219 222 223 224 226 229 231 232 233
198 200 198 201 203 213 222 224 232 239 245 251 256 260 263 262 262 260 258 256 259 250 256 247 235 241 242 227 223 222 224 224 221 221 219 222 224 226 228 230 231 232 234
186 189 191 188 184 205 221 233 242 246 251 254 259 263 261 260 259 268 255 252 254 253 243 248 232 238 230 220 225 221 217 224 224 222 222 222 224 226 228 229 232 234 234
154 159 170 183 205 238 244 246 247 249 252 252 261 270 269 268 264 260 257 266 252 249 233 233 223 220 219 215 219 215 218 224 222 223 222 224 225 227 229 229 230 231 239
151 162 176 200 217 228 232 228 231 236 254 266 279 288 287 285 274 272 259 262 258 241 232 226 227 223 222 223 216 212 212 214 216 217 218 218 218 221 226 227 227 234 243
158 172 180 188 196 209 215 226 235 243 256 269 284 294 294 290 291 270 270 268 253 254 249 239 233 230 222 223 216 213 215 216 224 219 213 212 211 211 219 231 234 238 246
123 133 152 185 215 232 227 231 236 247 253 264 278 288 298 298 303 277 276 284 267 263 229 236 241 235 225 227 227 219 219 221 224 216 208 201 206 207 212 221 230 239 244
66 64 59 48 33 341 272 232 224 243 249 256 265 277 283 293 310 311 284 291 272 254 232 230 224 224 225 218 216 211 214 217 211 196 199 205 205 204 203 211 215 224 228
65 65 63 59 53 41 26 32 12 245 256 249 279 295 282 275 289 316 324 296 269 248 239 230 222 220 213 206 215 220 218 218 213 209 210 211 208 203 178 195 203 208 209
Height
1514 1517 1519 1521 1523 1526 1529 1531 1533 1536 1538 1540 1542 1543 1546 1548 1550 1550 1552 1554 1555 1557 1558 1558 1560 1562 1563 1565 1565 1566 1567 1569 1571 1573 1575 1577 1579 1581 1583 1585 1587 1588 1589
1510 1512 1515 1517 1520 1522 1525 1529 1531 1533 1536 1537 1539 1541 1543 1545 1547 1548 1550 1551 1553 1554 1555 1555 1557 1559 1560 1562 1563 1564 1565 1567 1569 1572 1575 1577 1579 1581 1583 1584 1586 1588 1590
1505 1507 1509 1512 1515 1518 1521 1526 1528 1531 1533 1534 1536 1538 1540 1542 1544 1545 1547 1549 1550 1552 1551 1550 1550 1555 1558 1559 1560 1562 1563 1566 1569 1571 1573 1576 1577 1580 1581 1583 1586 1587 1589
1499 1501 1504 1507 1510 1513 1517 1521 1524 1527 1529 1531 1533 1535 1536 1538 1541 1542 1544 1545 1546 1546 1547 1547 1543 1554 1556 1557 1558 1559 1561 1564 1567 1569 1571 1574 1576 1578 1580 1582 1585 1587 1589
1493 1495 1498 1501 1505 1508 1511 1515 1519 1522 1525 1526 1529 1532 1533 1535 1537 1538 1539 1540 1542 1542 1542 1542 1546 1551 1552 1554 1555 1557 1559 1562 1565 1567 1569 1571 1574 1576 1579 1582 1584 1585 1587
1485 1489 1492 1495 1499 1503 1505 1508 1513 1517 1520 1523 1526 1528 1529 1531 1533 1533 1534 1535 1536 1536 1536 1538 1542 1547 1549 1551 1552 1555 1557 1559 1562 1564 1566 1569 1571 1574 1576 1579 1581 1584 1586
1479 1483 1486 1489 1492 1496 1499 1502 1507 1511 1515 1519 1523 1523 1524 1526 1526 1527 1529 1529 1531 1531 1531 1536 1538 1541 1545 1547 1549 1552 1554 1556 1559 1562 1564 1566 1568 1571 1574 1576 1579 1581 1583
1472 1474 1476 1479 1484 1489 1492 1496 1499 1503 1510 1513 1516 1519 1519 1521 1519 1520 1522 1523 1523 1526 1527 1530 1531 1536 1540 1542 1544 1547 1550 1553 1556 1559 1561 1563 1565 1568 1571 1574 1576 1578 1580
1462 1466 1470 1474 1477 1481 1484 1488 1492 1495 1501 1506 1510 1514 1515 1514 1514 1513 1515 1516 1516 1517 1521 1524 1525 1529 1534 1537 1539 1542 1545 1548 1551 1555 1557 1560 1561 1563 1567 1569 1572 1575 1577
1453 1458 1463 1467 1472 1474 1478 1482 1486 1489 1494 1498 1504 1505 1508 1508 1510 1509 1508 1508 1511 1512 1513 1516 1519 1521 1526 1530 1532 1535 1539 1543 1546 1550 1553 1556 1557 1559 1562 1565 1568 1571 1573
1445 1449 1455 1459 1464 1467 1471 1475 1478 1483 1486 1491 1494 1498 1503 1504 1505 1504 1504 1505 1505 1506 1507 1506 1509 1512 1518 1523 1525 1529 1533 1537 1540 1545 1548 1551 1553 1555 1557 1560 1563 1566 1569
1434 1440 1447 1451 1456 1460 1465 1467 1471 1476 1480 1485 1488 1491 1494 1496 1496 1498 1499 1499 1499 1501 1501 1501 1502 1503 1510 1515 1519 1522 1526 1530 1534 1538 1542 1546 1549 1551 1553 1555 1558 1561 1564
1424 1432 1437 1443 1448 1453 1457 1462 1465 1470 1474 1478 1481 1484 1487 1488 1490 1492 1493 1494 1493 1494 1495 1496 1498 1500 1504 1509 1512 1516 1520 1523 1527 1531 1535 1539 1543 1546 1549 1551 1553 1556 1558
1417 1422 1430 1437 1443 1450 1451 1455 1459 1463 1466 1471 1474 1477 1479 1480 1482 1483 1485 1487 1487 1485 1485 1487 1489 1492 1497 1501 1505 1509 1513 1517 1521 1524 1528 1532 1536 1540 1542 1545 1548 1550 1553
1412 1417 1423 1433 1438 1442 1445 1450 1453 1456 1459 1463 1466 1469 1471 1473 1474 1476 1477 1477 1480 1480 1477 1479 1481 1483 1488 1492 1497 1501 1505 1508 1513 1517 1521 1526 1529 1533 1536 1538 1541 1544 1547
1406 1411 1417 1424 1431 1435 1438 1443 1447 1449 1452 1455 1459 1461 1463 1465 1466 1467 1468 1469 1470 1472 1471 1471 1473 1475 1479 1482 1488 1494 1498 1501 1506 1510 1514 1518 1522 1525 1529 1532 1535 1538 1540
1399 1406 1412 1418 1423 1427 1432 1436 1440 1443 1445 1449 1452 1453 1455 1456 1457 1459 1460 1461 1461 1463 1463 1464 1465 1467 1469 1474 1481 1486 1491 1494 1498 1502 1506 1510 1514 1518 1522 1525 1528 1531 1533
1397 1405 1409 1414 1419 1422 1426 1430 1433 1436 1439 1442 1445 1446 1447 1449 1449 1450 1450 1450 1451 1453 1456 1457 1458 1458 1462 1467 1472 1477 1483 1488 1491 1494 1499 1503 1507 1510 1514 1518 1521 1523 1525
1397 1403 1408 1411 1414 1419 1423 1425 1428 1431 1433 1436 1439 1440 1440 1440 1439 1439 1439 1440 1441 1443 1445 1447 1447 1451 1455 1459 1464 1470 1475 1479 1480 1487 1491 1495 1499 1503 1506 1509 1513 1515 1518
1398 1403 1405 1409 1412 1416 1417 1419 1423 1425 1428 1430 1432 1433 1432 1430 1429 1429 1429 1429 1431 1433 1434 1435 1438 1442 1445 1450 1456 1459 1462 1467 1472 1477 1483 1487 1491 1494 1498 1501 1505 1507 1509
1393 1396 1400 1403 1406 1408 1413 1415 1418 1420 1422 1424 1424 1424 1422 1420 1420 1420 1420 1419 1419 1421 1423 1424 1428 1431 1435 1440 1443 1449 1453 1458 1463 1469 1473 1477 1482 1486 1488 1492 1495 1498 1500
1391 1395 1397 1398 1400 1407 1409 1411 1413 1416 1418 1419 1418 1416 1414 1412 1409 1407 1408 1408 1409 1408 1410 1411 1416 1419 1422 1429 1435 1439 1442 1448 1455 1458 1463 1469 1473 1477 1480 1482 1485 1489 1491
1389 1388 1396 1397 1401 1403 1404 1407 1410 1411 1413 1413 1411 1408 1406 1405 1402 1398 1398 1397 1397 1397 1399 1402 1405 1408 1411 1414 1421 1427 1431 1437 1443 1449 1455 1460 1465 1468 1471 1473 1476 1479 1481
1388 1393 1394 1399 1400 1401 1400 1402 1405 1406 1406 1405 1404 1402 1400 1398 1394 1391 1390 1389 1387 1386 1386 1391 1395 1398 1400 1404 1409 1414 1420 1429 1437 1439 1446 1449 1454 1458 1460 1463 1467 1469 1471
1394 1394 1399 1400 1400 1399 1400 1399 1398 1401 1401 1399 1398 1397 1396 1393 1390 1386 1384 1381 1381 1381 1381 1385 1386 1390 1393 1397 1399 1406 1413 1422 1427 1430 1433 1439 1443 1450 1453 1456 1459 1461 1464
1401 1402 1402 1401 1401 1401 1401 1398 1396 1397 1397 1396 1395 1394 1391 1389 1386 1385 1383 1382 1381 1380 1380 1380 1380 1383 1385 1390 1394 1401 1405 1410 1416 1421 1426 1431 1434 1439 1446 1451 1454 1457 1459